User: anonymous   Login
Location: Unspecified
(0.0000°N, 0.0000°E)
Time: 22:19:31
(UTC+00:00)
Language:

SHIYAN 24C 02 - Orbit

View from above orbital plane
View from above orbital plane
View from above satellite
View from above satellite

Ground track
Ground track

The orbit is defined by the following mean orbital elements,

1 58651U          26140.76607299 +.00000000 +00000-0 +83719-4 0 00009
2 58651  97.4047 109.9760 0001984 178.8372 181.2857 14.98077721    06
Epoch (UTC): 20 May 2026 18:23:08
Eccentricity: 0.0001984
inclination: 97.4047°
perigee height: 571 km
apogee height: 574 km
right ascension of ascending node: 109.9760°
argument of perigee: 178.8372°
revolutions per day: 14.98077721
mean anomaly at epoch: 181.2857°

The dashed part of the orbit path shows where the satellite is in the earth's shadow,  

DLR